DW1920 Weather Reports


Display with metric or nautical units.
time (UTC)temp
F
wind
direction
speed
MPH
gust
MPH
rain 1hr
in
rain 24hr
in
rain mn
in
humidity
%
barometer
mb
20260903202003 62 37 9.0 12.0 0.00 0.06 0.06 95 1011.0
20260903201003 61 40 9.0 12.0 0.00 0.06 0.06 95 1010.9
20260903200003 61 36 8.0 11.0 0.00 0.06 0.06 95 1011.2
20260903195003 61 42 9.0 10.0 0.00 0.06 0.06 95 1011.4
20260903194024 62 54 8.0 10.0 0.00 0.06 0.06 95 1011.6
20260903193003 61 49 6.0 9.0 0.00 0.06 0.06 95 1011.8
20260903192003 62 54 6.0 8.0 0.00 0.06 0.06 95 1012.0
20260903191024 61 45 6.0 9.0 0.00 0.06 0.06 95 1012.1
20260903190003 61 51 6.0 9.0 0.00 0.06 0.06 95 1012.2
20260903185003 61 46 7.0 9.0 0.00 0.06 0.06 94 1012.4
20260903184003 61 44 7.0 9.0 0.00 0.06 0.06 94 1012.3
20260903183002 62 52 7.0 9.0 0.00 0.06 0.06 95 1012.4
20260903182003 62 48 6.0 8.0 0.00 0.06 0.06 94 1012.5
20260903181003 62 61 7.0 8.0 0.00 0.06 0.06 94 1012.7
20260903180002 62 48 5.0 9.0 0.00 0.06 0.06 94 1012.6
20260903175024 62 72 8.0 9.0 0.00 0.06 0.06 94 1012.5
20260903174002 62 71 7.0 9.0 0.00 0.06 0.06 94 1012.7
20260903173024 63 85 6.0 9.0 0.00 0.06 0.06 94 1012.8
20260903172003 63 90 8.0 9.0 0.00 0.06 0.06 94 1012.7
20260903171004 63 106 7.0 9.0 0.00 0.06 0.06 94 1012.9
20260903170003 63 113 7.0 9.0 0.00 0.06 0.06 95 1012.9
20260903165003 63 122 7.0 9.0 0.00 0.06 0.06 95 1013.2
20260903164024 63 103 5.0 9.0 0.00 0.06 0.06 95 1013.2
20260903163003 62 75 7.0 9.0 0.00 0.06 0.06 95 1013.3
20260903162024 62 65 7.0 9.0 0.00 0.06 0.06 95 1013.4
20260903161003 62 67 8.0 9.0 0.00 0.06 0.06 95 1013.4
20260903160003 62 69 6.0 7.0 0.00 0.06 0.06 94 1013.8
20260903155003 62 59 5.0 7.0 0.00 0.06 0.06 94 1014.1
20260903154002 62 66 5.0 7.0 0.00 0.06 0.06 94 1014.2
20260903153003 62 92 4.0 5.0 0.00 0.06 0.06 94 1014.3
20260903152003 62 119 2.0 4.0 0.00 0.06 0.06 94 1014.4
20260903151003 62 117 3.0 4.0 0.00 0.06 0.06 95 1014.4
20260903150024 62 125 3.0 4.0 0.01 0.06 0.06 94 1014.5
20260903145003 62 152 2.0 3.0 0.01 0.06 0.06 95 1014.6
20260903144023 62 152 2.0 3.0 0.01 0.06 0.06 95 1014.5
20260903143003 61 172 2.0 2.0 0.01 0.06 0.06 95 1014.7
20260903142002 61 174 1.0 3.0 0.01 0.06 0.06 94 1015.0
20260903141004 61 174 1.0 3.0 0.00 0.05 0.05 94 1014.9
20260903140002 61 174 2.0 4.0 0.02 0.05 0.05 94 1014.8
20260903135003 61 197 4.0 7.0 0.02 0.05 0.05 94 1015.0
20260903134024 61 205 8.0 10.0 0.02 0.05 0.05 94 1015.0
20260903133002 62 216 5.0 9.0 0.02 0.05 0.05 94 1015.2
20260903132004 62 224 5.0 13.0 0.01 0.04 0.04 94 1015.5
20260903131024 62 222 7.0 12.0 0.00 0.03 0.03 94 1015.4
20260903130002 62 204 8.0 14.0 0.00 0.03 0.03 94 1015.3
20260903125024 61 198 11.0 16.0 0.00 0.03 0.03 94 1015.2
20260903124003 61 183 15.0 17.0 0.00 0.03 0.03 94 1014.9
20260903123002 62 159 10.0 12.0 0.00 0.03 0.03 94 1014.9
20260903122003 62 159 8.0 12.0 0.00 0.03 0.03 94 1015.0
20260903121003 62 132 7.0 10.0 0.00 0.03 0.03 94 1014.9
20260903120002 62 142 9.0 10.0 0.03 0.03 0.03 94 1015.1
20260903115003 62 132 8.0 13.0 0.03 0.03 0.03 94 1015.4
20260903114003 62 128 5.0 10.0 0.03 0.03 0.03 94 1015.4
20260903113002 62 79 4.0 7.0 0.02 0.02 0.02 94 1015.4
20260903112024 62 53 4.0 9.0 0.02 0.02 0.02 94 1015.5
20260903111002 62 39 5.0 8.0 0.00 0.00 0.00 94 1015.5
20260903110003 62 50 5.0 7.0 0.00 0.00 0.00 94 1015.7
20260903105002 62 61 4.0 7.0 0.00 0.00 0.00 94 1015.6
20260903104024 62 76 5.0 6.0 0.00 0.00 0.00 94 1015.6
20260903103003 62 70 4.0 6.0 0.00 0.00 0.00 94 1015.8
20260903102003 62 64 4.0 6.0 0.00 0.00 0.00 94 1015.7
20260903101003 62 48 2.0 5.0 0.00 0.00 0.00 94 1015.8
20260903100002 62 65 3.0 6.0 0.00 0.00 0.00 94 1015.6
20260903095003 62 24 4.0 5.0 0.00 0.00 0.00 94 1015.6
20260903094024 62 52 4.0 7.0 0.00 0.00 0.00 94 1015.4
20260903093002 62 71 4.0 6.0 0.00 0.00 0.00 94 1015.4
20260903092024 62 78 4.0 5.0 0.00 0.00 0.00 94 1015.4
20260903091024 62 102 5.0 8.0 0.00 0.00 0.00 94 1015.6
20260903090003 62 105 6.0 8.0 0.00 0.00 0.00 94 1015.7
20260903085045 62 105 5.0 8.0 0.00 0.00 0.00 94 1015.7
20260903084002 62 108 5.0 8.0 0.00 0.00 0.00 93 1015.8
20260903083003 62 103 6.0 9.0 0.00 0.00 0.00 93 1015.7
20260903082002 62 110 5.0 8.0 0.00 0.00 0.00 93 1016.0
20260903081024 62 112 6.0 9.0 0.00 0.00 0.00 93 1016.1
20260903080003 62 116 7.0 10.0 0.00 0.00 0.00 93 1016.2
20260903075002 62 120 7.0 10.0 0.00 0.00 0.00 93 1016.2
20260903073002 62 120 9.0 11.0 0.00 0.00 0.00 93 1016.4
20260903072003 62 122 10.0 12.0 0.00 0.00 0.00 93 1016.5
20260903071003 62 119 9.0 11.0 0.00 0.00 0.00 93 1016.8
20260903070002 62 122 9.0 10.0 0.00 0.00 0.00 93 1017.1
20260903065003 62 126 7.0 10.0 0.00 0.00 0.00 94 1017.3
20260903064003 62 127 8.0 10.0 0.00 0.00 0.00 94 1017.3
20260903063003 62 123 8.0 10.0 0.00 0.00 0.00 94 1017.5
20260903062003 62 139 7.0 10.0 0.00 0.00 0.00 94 1017.7
20260903061003 62 129 9.0 10.0 0.00 0.00 0.00 94 1017.6
20260903060003 61 110 7.0 9.0 0.00 0.00 0.00 94 1017.5
20260903055003 61 98 8.0 10.0 0.00 0.00 0.00 94 1017.7
20260903054003 61 109 8.0 9.0 0.00 0.00 0.00 94 1017.6
20260903053024 61 78 8.0 9.0 0.00 0.00 0.00 94 1017.7
20260903052003 61 47 6.0 9.0 0.00 0.00 0.00 94 1018.1
20260903051003 61 43 7.0 12.0 0.00 0.00 0.00 94 1018.2
20260903050024 61 43 7.0 9.0 0.00 0.00 0.00 94 1018.3
20260903045003 61 56 4.0 9.0 0.00 0.00 0.00 94 1018.6
20260903044002 61 47 5.0 8.0 0.00 0.00 0.00 94 1018.8
20260903043003 61 19 7.0 9.0 0.00 0.00 0.00 94 1018.9
20260903042024 61 36 6.0 9.0 0.00 0.00 0.00 94 1018.7
20260903041003 61 42 7.0 9.0 0.00 0.00 0.00 94 1018.9
20260903040003 61 37 4.0 9.0 0.00 0.00 0.00 94 1018.8
20260903035024 61 44 7.0 9.0 0.00 0.00 0.00 94 1018.9
20260903034024 61 73 7.0 9.0 0.00 0.00 0.00 93 1019.0
20260903033003 60 62 6.0 10.0 0.00 0.00 0.00 93 1019.0
20260903032003 61 47 6.0 8.0 0.00 0.00 0.00 93 1019.0
20260903031003 60 64 4.0 7.0 0.00 0.00 0.00 93 1019.0
20260903030003 60 67 4.0 7.0 0.00 0.00 0.00 93 1019.1
20260903025025 60 87 5.0 7.0 0.00 0.00 0.00 93 1019.3
20260903024003 60 33 5.0 7.0 0.00 0.00 0.00 93 1019.4
20260903023045 60 30 5.0 7.0 0.00 0.00 0.00 93 1019.5
20260903022024 60 65 6.0 8.0 0.00 0.00 0.00 93 1019.3
20260903021002 60 56 5.0 9.0 0.00 0.00 0.00 93 1019.4
20260903020003 60 45 6.0 8.0 0.00 0.00 0.00 93 1019.3
20260903015003 60 61 7.0 9.0 0.00 0.00 0.00 93 1019.2
20260903014003 60 15 4.0 9.0 0.00 0.00 0.00 93 1019.6
20260903013003 60 45 7.0 10.0 0.00 0.00 0.00 93 1019.2
20260903012002 60 70 9.0 11.0 0.00 0.00 0.00 92 1019.0
20260903011024 60 56 7.0 10.0 0.00 0.00 0.00 92 1019.2
20260903010024 60 52 7.0 9.0 0.00 0.00 0.00 92 1019.4
20260903005003 60 52 7.0 10.0 0.00 0.00 0.00 92 1019.4
20260903004003 60 51 8.0 9.0 0.00 0.00 0.00 92 1019.4
20260903003003 60 58 6.0 9.0 0.00 0.00 0.00 92 1019.4
20260903002003 60 67 8.0 9.0 0.00 0.00 0.00 92 1019.7
20260903001003 60 44 5.0 8.0 0.00 0.00 0.00 92 1019.9
20260903000003 60 48 6.0 9.0 0.00 0.00 0.00 92 1019.9
20260902235003 60 61 6.0 10.0 0.00 0.00 0.00 92 1020.0
20260902234002 60 68 9.0 10.0 0.00 0.00 0.00 92 1019.9
20260902233003 60 66 8.0 11.0 0.00 0.00 0.00 91 1019.8
20260902232003 60 69 8.0 10.0 0.00 0.00 0.00 91 1019.9
20260902231024 60 57 7.0 11.0 0.00 0.00 0.00 91 1020.0
20260902230024 61 55 9.0 11.0 0.00 0.00 0.00 91 1020.1
20260902225003 61 72 10.0 11.0 0.00 0.00 0.00 91 1020.2
20260902224002 61 71 8.0 10.0 0.00 0.00 0.00 91 1020.4
20260902223003 61 65 7.0 9.0 0.00 0.00 0.00 91 1020.4
20260902222024 61 65 8.0 10.0 0.00 0.00 0.00 90 1020.3
20260902221003 61 70 8.0 10.0 0.00 0.00 0.00 90 1020.3
20260902220003 61 57 7.0 12.0 0.00 0.00 0.00 89 1020.4
20260902215024 62 77 9.0 11.0 0.00 0.00 0.00 89 1020.4
20260902214003 62 83 9.0 11.0 0.00 0.00 0.00 89 1020.4
20260902213024 62 81 10.0 12.0 0.00 0.00 0.00 89 1020.5
20260902212003 61 89 10.0 12.0 0.00 0.00 0.00 89 1020.4
20260902211023 61 78 9.0 11.0 0.00 0.00 0.00 89 1020.7
20260902210003 61 62 7.0 10.0 0.00 0.00 0.00 89 1021.2
20260902205023 61 65 8.0 12.0 0.00 0.00 0.00 87 1020.8
20260902204003 62 77 10.0 12.0 0.00 0.00 0.00 87 1020.9
20260902203002 62 78 10.0 11.0 0.00 0.00 0.00 88 1021.0